N3WAX-1 Weather Reports


time (UTC)temp
C
wind
direction
speed
KPH
gust
KPH
rain 1hr
cm
rain 24hr
cm
rain mn
cm
humidity
%
barometer
mb
20260504110348 8 165 1.6 8.0 0.00 0.00 0.00 74 1014.8
20260504100221 6 173 3.2 9.7 0.00 0.00 0.00 75 1015.0
20260504081954 6 190 3.2 12.9 0.00 0.00 0.00 69 1015.1
20260504081444 6 167 3.2 12.9 0.00 0.00 0.00 69 1015.1
20260504080939 6 157 3.2 9.7 0.00 0.00 0.00 70 1015.0
20260504080432 5 184 3.2 8.0 0.00 0.00 0.00 70 1015.0
20260504080144 6 150 3.2 8.0 0.00 0.00 0.00 69 1015.0
20260504050333 6 161 1.6 3.2 0.00 0.00 0.00 70 1015.2
20260504045832 6 153 1.6 6.4 0.00 0.00 0.00 70 1015.1
20260504045333 6 176 3.2 6.4 0.00 0.00 0.00 70 1015.2
20260504044834 6 169 3.2 6.4 0.00 0.00 0.00 70 1015.2
20260504044333 6 171 3.2 6.4 0.00 0.00 0.00 71 1015.2
20260504043832 5 161 3.2 6.4 0.00 0.00 0.00 71 1015.1
20260504043556 5 153 3.2 6.4 0.00 0.00 0.00 72 1015.1
20260504042832 5 173 3.2 6.4 0.00 0.00 0.00 72 1015.1
20260504042333 5 188 1.6 4.8 0.00 0.00 0.00 71 1014.9
20260504041833 6 164 1.6 3.2 0.00 0.00 0.00 70 1014.8
20260504041332 6 164 1.6 3.2 0.00 0.00 0.00 70 1014.7
20260504040832 6 164 1.6 3.2 0.00 0.00 0.00 71 1014.8
20260504040336 6 157 1.6 6.4 0.00 0.00 0.00 70 1014.8
20260504040050 6 160 1.6 6.4 0.00 0.00 0.00 71 1014.8
20260504035321 5 169 1.6 4.8 0.00 0.00 0.00 71 1014.7
20260504034815 6 160 1.6 4.8 0.00 0.00 0.00 70 1014.7
20260504034308 6 151 1.6 6.4 0.00 0.00 0.00 69 1014.7
20260504033757 6 165 1.6 6.4 0.00 0.00 0.00 70 1014.6
20260504033251 6 163 1.6 3.2 0.00 0.00 0.00 70 1014.6
20260504032745 6 161 1.6 3.2 0.00 0.00 0.00 70 1014.6
20260504032234 6 161 1.6 3.2 0.00 0.00 0.00 69 1014.6
20260504031729 6 161 1.6 3.2 0.00 0.00 0.00 68 1014.6
20260504031223 6 163 1.6 6.4 0.00 0.00 0.00 67 1014.5
20260504030712 6 164 1.6 6.4 0.00 0.00 0.00 67 1014.5
20260504030206 6 164 0.0 3.2 0.00 0.00 0.00 66 1014.5
20260504025701 6 157 0.0 4.8 0.00 0.00 0.00 66 1014.4
20260504025151 6 153 0.0 4.8 0.00 0.00 0.00 67 1014.3
20260504024644 6 157 0.0 0.0 0.00 0.00 0.00 67 1014.3
20260504024138 6 161 0.0 0.0 0.00 0.00 0.00 67 1014.3
20260504023629 6 173 0.0 0.0 0.00 0.00 0.00 66 1014.4
20260504023123 6 173 0.0 1.6 0.00 0.00 0.00 65 1014.4
20260504022616 7 172 0.0 3.2 0.00 0.00 0.00 65 1014.4
20260504022106 7 155 1.6 3.2 0.00 0.00 0.00 65 1014.4
20260504021601 7 156 1.6 3.2 0.00 0.00 0.00 65 1014.5
20260504021055 7 176 0.0 3.2 0.00 0.00 0.00 64 1014.5
20260504020544 7 186 1.6 3.2 0.00 0.00 0.00 63 1014.5
20260504020039 7 186 1.6 4.8 0.00 0.00 0.00 64 1014.4
20260504015533 7 180 0.0 4.8 0.00 0.00 0.00 63 1014.4
20260504015239 8 156 0.0 0.0 0.00 0.00 0.00 63 1014.5
20260504014517 7 163 0.0 0.0 0.00 0.00 0.00 62 1014.4
20260504014011 8 163 0.0 0.0 0.00 0.00 0.00 61 1014.3
20260504013500 8 163 0.0 0.0 0.00 0.00 0.00 60 1014.3
20260504012955 8 163 0.0 0.0 0.00 0.00 0.00 58 1014.2
20260504012449 8 189 0.0 4.8 0.00 0.00 0.00 59 1014.2
20260504011938 8 189 1.6 4.8 0.00 0.00 0.00 59 1014.1
20260504011433 9 181 1.6 6.4 0.00 0.00 0.00 57 1014.0
20260504010927 9 182 3.2 6.4 0.00 0.00 0.00 55 1014.0
20260504010416 9 173 3.2 4.8 0.00 0.00 0.00 55 1014.0
20260504005911 9 185 1.6 4.8 0.00 0.00 0.00 55 1013.9
20260504005405 9 227 1.6 4.8 0.00 0.00 0.00 54 1013.9
20260504004854 10 220 1.6 4.8 0.00 0.00 0.00 54 1013.8
20260504004349 10 209 1.6 4.8 0.00 0.00 0.00 52 1013.8
20260504003843 10 190 3.2 8.0 0.00 0.00 0.00 51 1013.8
20260504003333 10 186 3.2 8.0 0.00 0.00 0.00 50 1013.8
20260504002827 11 182 3.2 6.4 0.00 0.00 0.00 50 1013.7
20260504002321 11 186 3.2 6.4 0.00 0.00 0.00 49 1013.6
20260504001810 11 188 3.2 6.4 0.00 0.00 0.00 49 1013.5
20260504001524 11 198 4.8 8.0 0.00 0.00 0.00 48 1013.4
20260504000758 11 200 3.2 8.0 0.00 0.00 0.00 48 1013.5
20260504000249 12 199 4.8 9.7 0.00 0.00 0.00 46 1013.3
20260503235743 12 189 4.8 9.7 0.00 0.00 0.00 45 1013.4
20260503235236 12 208 4.8 12.9 0.00 0.00 0.00 45 1013.3
20260503234726 12 208 4.8 12.9 0.00 0.00 0.00 46 1013.2
20260503234707 12 224 4.8 11.3 0.00 0.00 0.00 45 1013.1
20260503233714 13 209 6.4 11.3 0.00 0.00 0.00 44 1013.2
20260503233205 13 207 8.0 12.9 0.00 0.00 0.00 43 1013.1
20260503232700 13 201 9.7 20.9 0.00 0.00 0.00 43 1013.1
20260503232153 13 217 9.7 20.9 0.00 0.00 0.00 41 1013.1
20260503231643 13 236 11.3 19.3 0.00 0.00 0.00 41 1013.2
20260503231136 13 213 11.3 19.3 0.00 0.00 0.00 41 1013.2
20260503230637 14 224 11.3 24.1 0.00 0.00 0.00 41 1013.1
20260503230358 14 205 12.9 24.1 0.00 0.00 0.00 41 1013.1
20260503225631 14 210 12.9 24.1 0.00 0.00 0.00 39 1013.1
20260503225131 14 215 12.9 24.1 0.00 0.00 0.00 40 1013.1
20260503224632 14 221 12.9 22.5 0.00 0.00 0.00 41 1013.0
20260503224132 14 225 11.3 24.1 0.00 0.00 0.00 40 1013.0
20260503223631 14 206 9.7 24.1 0.00 0.00 0.00 41 1013.0
20260503223130 14 256 11.3 20.9 0.00 0.00 0.00 42 1012.9
20260503222632 15 249 11.3 20.9 0.00 0.00 0.00 41 1012.9
20260503222131 15 253 9.7 19.3 0.00 0.00 0.00 41 1013.0
20260503221631 15 239 12.9 20.9 0.00 0.00 0.00 40 1012.9
20260503221359 14 250 14.5 20.9 0.00 0.00 0.00 38 1013.0
20260503220631 14 226 12.9 22.5 0.00 0.00 0.00 41 1013.0
20260503220131 15 263 11.3 22.5 0.00 0.00 0.00 39 1013.0
20260503215632 15 223 12.9 25.7 0.00 0.00 0.00 41 1013.1
20260503215131 15 223 14.5 27.4 0.00 0.00 0.00 38 1013.0
20260503214630 15 225 12.9 27.4 0.00 0.00 0.00 40 1013.0
20260503214130 15 297 16.1 35.4 0.00 0.00 0.00 41 1013.0
20260503213632 15 259 16.1 35.4 0.00 0.00 0.00 38 1012.9
20260503213131 15 253 16.1 32.2 0.00 0.00 0.00 38 1013.0
20260503212631 15 237 16.1 32.2 0.00 0.00 0.00 40 1013.0
20260503212131 15 239 16.1 29.0 0.00 0.00 0.00 39 1012.9
20260503211632 15 205 17.7 30.6 0.00 0.00 0.00 39 1012.9
20260503211130 15 213 14.5 30.6 0.00 0.00 0.00 39 1012.9
20260503210632 15 194 12.9 25.7 0.00 0.00 0.00 38 1012.9
20260503210130 15 209 14.5 30.6 0.00 0.00 0.00 40 1013.0
20260503205859 15 209 17.7 32.2 0.00 0.00 0.00 40 1012.9
20260503205130 14 232 17.7 32.2 0.00 0.00 0.00 39 1012.9
20260503204631 14 233 16.1 38.6 0.00 0.00 0.00 39 1012.9
20260503204130 15 222 14.5 38.6 0.00 0.00 0.00 37 1012.9
20260503203630 15 227 14.5 27.4 0.00 0.00 0.00 39 1013.0
20260503203130 14 189 16.1 32.2 0.00 0.00 0.00 40 1013.1
20260503202630 14 286 16.1 32.2 0.00 0.00 0.00 38 1013.0
20260503202132 14 222 14.5 30.6 0.00 0.00 0.00 41 1013.0
20260503201631 14 236 16.1 40.2 0.00 0.00 0.00 42 1013.1
20260503201134 14 239 19.3 40.2 0.00 0.00 0.00 40 1013.2
20260503200858 14 205 17.7 32.2 0.00 0.00 0.00 42 1013.3
20260503200134 14 235 16.1 32.2 0.00 0.00 0.00 40 1013.3
20260503195633 14 182 16.1 35.4 0.00 0.00 0.00 44 1013.4
20260503195128 13 212 20.9 41.8 0.00 0.00 0.00 43 1013.5
20260503194622 13 212 20.9 41.8 0.00 0.00 0.00 40 1013.5
20260503194112 14 261 19.3 38.6 0.00 0.00 0.00 43 1013.5
20260503193823 13 269 20.9 35.4 0.00 0.00 0.00 45 1013.6
20260503193059 13 222 19.3 33.8 0.00 0.00 0.00 44 1013.6
20260503192550 13 253 17.7 35.4 0.00 0.00 0.00 49 1013.7
20260503192044 13 275 17.7 35.4 0.00 0.00 0.00 43 1013.7
20260503191546 13 248 16.1 32.2 0.00 0.00 0.00 45 1013.9
20260503191308 13 215 14.5 32.2 0.00 0.00 0.00 47 1013.9
20260503190538 12 281 14.5 32.2 0.00 0.00 0.00 49 1013.8
20260503190258 12 259 16.1 32.2 0.00 0.00 0.00 44 1014.0
20260503185536 12 219 16.1 32.2 0.00 0.00 0.00 44 1013.9
20260503185252 13 266 17.7 33.8 0.00 0.00 0.00 49 1014.0
20260503184537 12 301 19.3 33.8 0.00 0.00 0.00 44 1014.1
20260503184258 13 224 19.3 35.4 0.00 0.00 0.00 44 1014.1
20260503183542 12 218 19.3 37.0 0.00 0.00 0.00 44 1014.1
20260503183036 12 228 17.7 37.0 0.00 0.00 0.00 45 1014.1
20260503182537 13 218 17.7 38.6 0.00 0.00 0.00 47 1014.2
20260503182038 12 231 16.1 38.6 0.00 0.00 0.00 45 1014.1
20260503181536 12 225 19.3 33.8 0.00 0.00 0.00 45 1014.1
20260503181037 12 282 20.9 37.0 0.00 0.00 0.00 46 1014.2
20260503180531 13 254 16.1 37.0 0.00 0.00 0.00 45 1014.3
20260503180028 13 222 16.1 33.8 0.00 0.00 0.00 46 1014.3
20260503175528 13 321 16.1 33.8 0.00 0.00 0.00 50 1014.2
20260503175033 12 249 14.5 29.0 0.00 0.00 0.00 47 1014.3
20260503174529 12 219 17.7 40.2 0.00 0.00 0.00 45 1014.4
20260503174255 12 240 19.3 40.2 0.00 0.00 0.00 48 1014.4
20260503173529 11 269 20.9 41.8 0.00 0.00 0.00 47 1014.3
20260503173512 12 254 19.3 41.8 0.00 0.00 0.00 45 1014.4
20260503172529 12 242 16.1 40.2 0.00 0.00 0.00 45 1014.4
20260503172028 12 244 17.7 32.2 0.00 0.00 0.00 48 1014.4
20260503171528 12 231 20.9 38.6 0.00 0.00 0.00 44 1014.6
20260503171030 12 284 19.3 40.2 0.00 0.00 0.00 46 1014.6
20260503170529 12 254 19.3 40.2 0.00 0.00 0.00 47 1014.8
20260503150452 10 211 17.7 33.8 0.00 0.00 0.00 54 1015.2
20260503140205 8 242 14.5 27.4 0.00 0.00 0.00 60 1015.2
20260503130952 7 227 16.1 29.0 0.00 0.00 0.00 63 1014.9
20260503130456 7 209 16.1 37.0 0.00 0.00 0.00 63 1014.9